TimeEST,TemperatureF,Dew PointF,Humidity,Sea Level PressureIn,VisibilityMPH,Wind Direction,Wind SpeedMPH,Gust SpeedMPH,PrecipitationIn,Events,Conditions,WindDirDegrees,DateUTC
12:56 AM,28.9,25.0,85,30.23,10.0,Calm,Calm,-,N/A,,Mostly Cloudy,0,2012-12-12 05:56:00
1:56 AM,28.9,26.1,89,30.25,10.0,Calm,Calm,-,N/A,,Mostly Cloudy,0,2012-12-12 06:56:00
2:56 AM,28.9,26.1,89,30.27,10.0,Calm,Calm,-,N/A,,Overcast,0,2012-12-12 07:56:00
3:56 AM,30.9,27.0,85,30.30,10.0,Calm,Calm,-,N/A,,Overcast,0,2012-12-12 08:56:00
4:56 AM,30.0,27.0,88,30.32,10.0,Calm,Calm,-,N/A,,Overcast,0,2012-12-12 09:56:00
5:56 AM,30.0,27.0,88,30.33,10.0,Calm,Calm,-,N/A,,Overcast,0,2012-12-12 10:56:00
6:56 AM,30.0,27.0,88,30.35,10.0,Calm,Calm,-,N/A,,Mostly Cloudy,0,2012-12-12 11:56:00
7:56 AM,30.0,27.0,88,30.38,7.0,Calm,Calm,-,N/A,,Mostly Cloudy,0,2012-12-12 12:56:00
8:56 AM,35.1,30.0,82,30.39,8.0,Calm,Calm,-,N/A,,Mostly Cloudy,0,2012-12-12 13:56:00
9:56 AM,37.0,28.9,73,30.42,10.0,NW,8.1,-,N/A,,Clear,310,2012-12-12 14:56:00
10:56 AM,39.9,27.0,60,30.43,10.0,NW,9.2,-,N/A,,Mostly Cloudy,310,2012-12-12 15:56:00
11:56 AM,39.2,24.8,56,30.39,10.0,North,8.1,-,N/A,,Scattered Clouds,350,2012-12-12 16:56:00
12:56 PM,39.9,25.0,55,30.40,10.0,WNW,5.8,-,N/A,,Mostly Cloudy,290,2012-12-12 17:56:00
1:56 PM,39.0,24.1,55,30.40,10.0,NW,5.8,-,N/A,,Mostly Cloudy,310,2012-12-12 18:56:00
2:56 PM,39.0,25.0,57,30.40,10.0,West,3.5,-,N/A,,Mostly Cloudy,280,2012-12-12 19:56:00
3:56 PM,39.2,24.8,56,30.39,10.0,Calm,Calm,-,N/A,,Mostly Cloudy,0,2012-12-12 20:56:00
4:56 PM,35.1,25.0,67,30.41,10.0,Calm,Calm,-,N/A,,Mostly Cloudy,0,2012-12-12 21:56:00
5:56 PM,34.0,27.0,75,30.41,10.0,Calm,Calm,-,N/A,,Mostly Cloudy,0,2012-12-12 22:56:00
6:56 PM,33.1,27.0,78,30.41,10.0,NNW,3.5,-,N/A,,Mostly Cloudy,330,2012-12-12 23:56:00
7:56 PM,35.6,26.6,70,30.41,10.0,Calm,Calm,-,N/A,,Mostly Cloudy,0,2012-12-13 00:56:00
8:56 PM,33.1,27.0,78,30.43,10.0,Calm,Calm,-,N/A,,Mostly Cloudy,0,2012-12-13 01:56:00
9:56 PM,30.9,27.0,85,30.45,10.0,Calm,Calm,-,N/A,,Overcast,0,2012-12-13 02:56:00
10:56 PM,32.0,27.0,82,30.45,9.0,Calm,Calm,-,N/A,,Overcast,0,2012-12-13 03:56:00
11:56 PM,30.0,27.0,88,30.44,8.0,Calm,Calm,-,N/A,,Overcast,0,2012-12-13 04:56:00